Cloud_Cover
65 99 100 100 86 87 47 5 5 2 0 0 0 0 0 0 0 0 0 0 0 0 0 0 0 0 0 0 0 0 2 2 5 5 3 5 5 12 15 52 47 62 88 95 100
100 100 86 56 93 39 6 5 5 0 0 0 0 0 0 0 0 0 0 0 0 0 0 0 0 0 0 0 0 0 0 0 0 0 0 0 0 0 0 0 0 0 0 0 0
100 100 100 84 7 3 10 0 0 0 0 0 0 0 0 0 0 0 0 0 0 0 0 0 0 0 0 0 0 0 0 0 0 0 0 0 0 0 0 0 0 0 0 0 0
100 47 22 61 5 31 10 0 0 0 0 0 0 0 0 0 0 0 0 0 0 0 0 0 0 0 0 0 0 0 0 0 0 0 0 0 0 0 0 0 0 0 0 0 0
96 27 96 63 5 4 1 1 2 0 0 0 0 0 0 0 0 0 0 0 0 0 0 0 0 0 0 0 0 0 0 0 0 0 0 0 0 0 0 0 0 0 0 0 0
72 91 97 30 5 0 0 5 5 0 0 0 0 0 0 0 0 0 0 0 0 0 0 0 0 0 0 0 0 0 0 0 0 0 0 0 0 0 0 0 0 0 0 0 0
100 85 18 7 30 4 5 5 5 5 0 0 0 0 0 0 0 0 0 0 0 0 0 0 0 0 0 0 0 0 0 0 0 0 0 0 0 0 0 0 0 0 0 1 0
100 100 73 5 26 5 5 5 5 0 0 2 0 0 0 0 0 0 0 0 0 0 0 0 0 0 0 0 0 0 0 0 0 0 0 0 0 0 0 0 0 0 0 0 0
100 100 90 19 41 5 5 40 5 5 0 0 0 0 0 0 0 0 0 0 0 0 0 0 0 0 0 0 0 0 0 0 0 0 0 0 0 0 0 0 0 0 0 0 0
100 100 91 17 8 5 5 7 5 5 0 0 0 0 0 0 0 0 0 0 0 0 0 0 0 0 0 0 0 0 4 5 4 1 5 5 4 0 0 0 0 0 0 0 0
100 92 90 100 41 19 5 5 5 2 0 0 0 0 0 0 0 0 0 0 0 0 0 0 0 0 0 3 5 1 0 3 5 5 5 5 5 0 0 5 0 0 0 0 0
100 71 9 5 5 5 5 5 5 4 0 0 0 0 0 0 0 0 0 0 0 0 0 0 0 0 0 1 0 0 0 0 5 7 5 6 5 0 3 0 0 0 0 0 0
90 35 41 5 5 25 18 5 5 4 2 0 0 0 0 0 0 0 0 0 0 0 0 2 4 4 4 1 0 0 0 0 5 5 1 0 5 2 5 4 5 5 0 0 0
100 90 96 5 56 36 12 5 5 5 5 0 0 0 0 0 0 0 0 0 0 0 2 5 5 4 5 5 5 0 0 0 0 0 0 0 4 5 5 69 27 0 0 0 0
82 100 99 5 98 63 47 5 5 5 5 5 5 0 0 0 0 0 0 0 0 0 5 5 5 5 5 5 3 0 0 0 0 0 0 1 4 6 52 41 5 1 0 0 0
100 100 90 35 98 93 93 5 5 5 5 5 5 5 2 0 0 0 0 0 0 5 5 5 5 5 12 5 5 5 4 3 0 0 5 3 4 8 25 79 5 2 0 0 0
100 100 87 5 86 100 100 5 5 5 5 5 5 5 5 5 4 0 1 3 4 5 24 5 11 6 5 5 8 9 1 0 0 2 10 3 5 8 12 43 6 5 6 2 4
100 97 83 9 47 78 69 21 39 5 5 5 5 5 9 5 5 5 5 0 5 5 5 51 6 49 5 19 76 21 5 2 0 2 5 5 5 5 51 44 68 5 1 0 5
100 97 100 5 17 77 28 73 94 25 33 23 7 6 13 5 5 5 5 5 5 5 5 51 5 99 51 95 54 5 1 2 3 5 5 5 14 81 78 100 100 5 0 3 5
100 99 99 71 53 77 88 89 97 94 74 88 48 5 35 16 63 39 14 5 5 5 5 32 32 100 100 100 71 5 5 5 11 6 5 14 15 5 35 90 39 5 0 4 6
67 99 82 82 66 88 92 100 100 89 100 99 67 82 79 21 88 60 6 5 5 5 5 75 51 99 100 100 73 57 71 25 20 55 23 5 54 92 100 64 31 3 1 5 5
96 100 100 85 80 97 99 100 100 100 100 88 55 80 77 73 73 21 5 5 5 5 5 85 97 67 100 100 72 100 91 55 11 48 100 98 32 80 98 93 21 0 1 5 9
100 100 100 100 100 100 100 100 96 80 94 100 97 97 93 61 60 33 5 5 5 5 5 26 73 88 99 100 97 95 5 5 14 99 100 100 100 82 88 100 6 0 5 5 68
100 100 100 100 100 100 98 100 96 77 52 100 100 100 100 100 100 49 9 20 5 5 5 5 50 86 23 96 13 55 18 88 100 100 95 100 98 98 83 79 8 0 5 47 54
100 100 100 100 97 99 100 100 100 100 65 39 90 82 100 100 100 100 92 34 15 5 29 50 77 53 31 100 70 67 89 100 100 100 83 100 100 100 90 74 5 5 5 5 56
100 100 100 100 100 100 100 100 100 100 100 81 100 100 100 100 100 100 100 97 48 8 5 46 40 92 100 100 99 100 94 100 100 100 96 100 100 58 60 19 5 5 5 79 96
100 100 100 100 100 100 100 100 100 99 100 100 100 100 100 94 87 60 99 100 6 6 6 11 37 86 96 97 38 77 94 43 100 49 39 100 91 97 96 5 5 5 62 94 36